Del Norte, CO

5:09 AM MST on February 11, 2016 (GMT -0700)
Wolf Creek Pass

Weather History for KCPW - July, 2013

Change the Weather History Date:

Wednesday, July 3, 2013

  Actual Average (KALS) Record (KALS)
Temperature  
Mean Temperature 48 °F 64 °F  
Max Temperature 60 °F 82 °F 92 °F (1989)
Min Temperature 37 °F 45 °F 34 °F (1992)
Degree Days  
Heating Degree Days 16 2  
Month to date heating degree days 6  
Since 1 June heating degree days 174  
Since 1 July heating degree days 6  
Cooling Degree Days 0 1  
Month to date cooling degree days 3  
Year to date cooling degree days 9  
Since 1 June cooling degree days 9  
Moisture  
Dew Point 34 °F    
Average Humidity 63    
Maximum Humidity 100    
Minimum Humidity 27    
Precipitation  
Precipitation 0.00 in 0.02 in 0.81 in (2001)
Month to date precipitation 0.07  
Year to date precipitation 2.78  
Snow  
Snow 0.00 in 0.00 in 0.00 in (2002)
Month to date snowfall 0.0  
Since 1 June snowfall 0.0  
Since 1 July snowfall 0.0  
Snow Depth -    
Sea Level Pressure  
Sea Level Pressure 30.54 in    
Wind  
Wind Speed - (North)    
Max Wind Speed -    
Max Gust Speed -    
Visibility 9 miles    
Events Fog , Thunderstorm    
T = Trace of Precipitation, MM = Missing Value Source: NWS Daily Summary

Daily Weather History Graph

Daily Weather History Graph

Search for Another Location

Airport or City:

Trip Planner

Search our weather history database for the weather conditions in past years. The results will help you decide how hot, cold, wet, or windy it might be!

Date:

Astronomy

Jul. 03, 2013 Rise Set
Actual Time 5:51 AM MDT 8:31 PM MDT
Civil Twilight 5:20 AM MDT 9:02 PM MDT
Nautical Twilight 4:41 AM MDT 9:41 PM MDT
Astronomical Twilight 3:58 AM MDT 10:24 PM MDT
Moon 2:28 AM MDT (7/3) 4:46 PM MDT (7/3)
Length of Visible Light 15h 42m
Length of Day
14h 40m
Waning Crescent, 18% of the Moon is Illuminated
Jul 3
Waning Crescent
Jul 8
New
Jul 15
First Quarter
Jul 22
Full
Jul 29
Last Quarter

Hourly Weather History & Observations

Time (MDT) Temp. Dew Point Humidity Pressure Visibility Wind Dir Wind Speed Gust Speed Precip Events Conditions
12:17 AM 44.6 °F 32.0 °F 61% 30.61 in 10.0 mi North - - N/A Thunderstorm Clear
12:37 AM 44.6 °F 32.0 °F 61% 30.61 in 10.0 mi North - - N/A   Clear
12:57 AM 44.6 °F 32.0 °F 61% 30.60 in 10.0 mi North - - N/A   Clear
1:17 AM 42.8 °F 32.0 °F 66% 30.60 in 10.0 mi North - - N/A   Clear
1:37 AM 42.8 °F 33.8 °F 70% 30.60 in 10.0 mi North - - N/A   Scattered Clouds
1:57 AM 41.0 °F 33.8 °F 76% 30.59 in 10.0 mi North - - N/A   Scattered Clouds
2:17 AM 41.0 °F 35.6 °F 81% 30.59 in 10.0 mi North - - N/A   Clear
2:37 AM 39.2 °F 35.6 °F 87% 30.59 in 10.0 mi North - - N/A   Clear
2:57 AM 39.2 °F 37.4 °F 93% 30.58 in 10.0 mi North - - N/A   Scattered Clouds
3:17 AM 39.2 °F 37.4 °F 93% 30.57 in 10.0 mi North - - N/A   Scattered Clouds
3:37 AM 39.2 °F 37.4 °F 93% 30.57 in 10.0 mi North - - N/A   Scattered Clouds
3:57 AM 39.2 °F 37.4 °F 93% 30.57 in 10.0 mi North - - N/A   Scattered Clouds
4:17 AM 37.4 °F 37.4 °F 100% 30.56 in 10.0 mi North - - N/A   Mostly Cloudy
4:37 AM 37.4 °F 37.4 °F 100% 30.55 in 7.0 mi North - - N/A   Overcast
4:57 AM 37.4 °F 37.4 °F 100% 30.55 in 1.5 mi North - - N/A   Overcast
5:17 AM 37.4 °F 37.4 °F 100% 30.55 in 0.8 mi North - - N/A   Overcast
5:37 AM 37.4 °F 37.4 °F 100% 30.55 in 0.8 mi North - - N/A   Overcast
5:57 AM 37.4 °F 37.4 °F 100% 30.55 in 10.0 mi North - - N/A   Scattered Clouds
6:17 AM 39.2 °F 37.4 °F 93% 30.54 in 10.0 mi North - - N/A   Scattered Clouds
6:37 AM 37.4 °F 37.4 °F 100% 30.55 in 0.2 mi North - - N/A Fog Fog
6:57 AM 39.2 °F 39.2 °F 100% 30.55 in 0.2 mi North - - N/A Fog Fog
7:17 AM 41.0 °F 37.4 °F 87% 30.55 in 5.0 mi North - - N/A   Mostly Cloudy
7:37 AM 42.8 °F 37.4 °F 81% 30.56 in 10.0 mi North - - N/A   Clear
7:57 AM 42.8 °F 39.2 °F 87% 30.57 in 10.0 mi North - - N/A   Clear
8:17 AM 42.8 °F 39.2 °F 87% 30.57 in 10.0 mi North - - N/A   Clear
8:37 AM 44.6 °F 39.2 °F 81% 30.57 in 10.0 mi North - - N/A   Clear
8:57 AM 46.4 °F 41.0 °F 81% 30.57 in 10.0 mi North - - N/A   Clear
9:17 AM 46.4 °F 41.0 °F 81% 30.57 in 10.0 mi North - - N/A   Scattered Clouds
9:37 AM 51.8 °F 37.4 °F 58% 30.56 in 10.0 mi North - - N/A   Scattered Clouds
9:57 AM 53.6 °F 33.8 °F 47% 30.56 in 10.0 mi North - - N/A   Scattered Clouds
10:17 AM 55.4 °F 33.8 °F 44% 30.56 in 10.0 mi North - - N/A   Scattered Clouds
10:37 AM 55.4 °F 32.0 °F 41% 30.56 in 10.0 mi North - - N/A   Clear
10:57 AM 55.4 °F 30.2 °F 38% 30.56 in 10.0 mi North - - N/A   Clear
11:17 AM 57.2 °F 32.0 °F 38% 30.56 in 10.0 mi North - - N/A   Clear
11:37 AM 55.4 °F 30.2 °F 38% 30.55 in 10.0 mi North - - N/A   Clear
11:57 AM 59.0 °F 32.0 °F 36% 30.55 in 10.0 mi North - - N/A   Clear
12:17 PM 59.0 °F 28.4 °F 31% 30.55 in 10.0 mi North - - N/A   Clear
12:37 PM 59.0 °F 26.6 °F 29% 30.55 in 10.0 mi North - - N/A   Clear
12:57 PM 60.8 °F 26.6 °F 27% 30.55 in 10.0 mi North - - N/A   Clear
1:17 PM 60.8 °F 30.2 °F 31% 30.54 in 10.0 mi North - - N/A   Scattered Clouds
1:37 PM 59.0 °F 28.4 °F 31% 30.54 in 10.0 mi North - - N/A   Mostly Cloudy
1:57 PM 57.2 °F 35.6 °F 44% 30.54 in 10.0 mi North - - N/A   Mostly Cloudy
2:12 PM 55.4 °F 32.0 °F 41% 30.53 in 10.0 mi North - - N/A   Mostly Cloudy
2:57 PM 55.4 °F 37.4 °F 51% 30.51 in 10.0 mi North - - N/A   Overcast
3:17 PM 55.4 °F 37.4 °F 51% 30.50 in 10.0 mi North - - N/A   Overcast
3:37 PM 53.6 °F 37.4 °F 54% 30.51 in 10.0 mi North - - N/A   Overcast
3:57 PM 53.6 °F 30.2 °F 41% 30.51 in 10.0 mi North - - N/A   Mostly Cloudy
4:17 PM 55.4 °F 32.0 °F 41% 30.50 in 10.0 mi North - - N/A Thunderstorm Scattered Clouds
4:37 PM 59.0 °F 30.2 °F 34% 30.50 in 10.0 mi North - - N/A   Mostly Cloudy
4:57 PM 59.0 °F 30.2 °F 34% 30.50 in 10.0 mi North - - N/A   Mostly Cloudy
5:17 PM 59.0 °F 28.4 °F 31% 30.49 in 10.0 mi North - - N/A   Mostly Cloudy
5:37 PM 55.4 °F 33.8 °F 44% 30.48 in 10.0 mi North - - N/A   Mostly Cloudy
5:57 PM 53.6 °F 35.6 °F 51% 30.49 in 10.0 mi North - - N/A   Overcast
6:17 PM 53.6 °F 33.8 °F 47% 30.49 in 10.0 mi North - - N/A   Scattered Clouds
6:37 PM 51.8 °F 33.8 °F 50% 30.49 in 10.0 mi North - - N/A   Scattered Clouds
6:57 PM 50.0 °F 33.8 °F 54% 30.50 in 10.0 mi North - - N/A   Mostly Cloudy
7:17 PM 50.0 °F 33.8 °F 54% 30.50 in 10.0 mi North - - N/A   Overcast
7:37 PM 44.6 °F 33.8 °F 66% 30.49 in 10.0 mi North - - N/A Thunderstorm Thunderstorm
7:57 PM 44.6 °F 33.8 °F 66% 30.50 in 10.0 mi North - - N/A   Scattered Clouds
8:17 PM 44.6 °F 33.8 °F 66% 30.52 in 10.0 mi North - - N/A   Scattered Clouds
8:37 PM 44.6 °F 33.8 °F 66% 30.51 in 10.0 mi North - - N/A   Scattered Clouds
8:57 PM 46.4 °F 33.8 °F 62% 30.52 in 10.0 mi North - - N/A   Scattered Clouds
9:17 PM 46.4 °F 32.0 °F 57% 30.52 in 10.0 mi North - - N/A   Clear
9:37 PM 46.4 °F 32.0 °F 57% 30.52 in 10.0 mi North - - N/A   Scattered Clouds
9:57 PM 46.4 °F 32.0 °F 57% 30.52 in 10.0 mi North - - N/A   Scattered Clouds
10:17 PM 46.4 °F 32.0 °F 57% 30.53 in 10.0 mi North - - N/A   Clear
10:37 PM 44.6 °F 32.0 °F 61% 30.54 in 10.0 mi North - - N/A   Clear
10:57 PM 44.6 °F 32.0 °F 61% 30.54 in 10.0 mi North - - N/A   Scattered Clouds
11:17 PM 44.6 °F 32.0 °F 61% 30.53 in 10.0 mi North - - N/A   Scattered Clouds
11:36 PM 44.6 °F 32.0 °F 61% 30.53 in 10.0 mi North - - N/A   Clear
11:57 PM 44.6 °F 32.0 °F 61% 30.53 in 10.0 mi North - - N/A   Clear